Home > Weather > Cranbrook > Past weeks

Flag for Canada Past Weather in Cranbrook, British Columbia, Canada — Yesterday and Last 2 Weeks

Now
73 °F

Passing clouds.


Feels Like: 77 °F
Forecast: 57 / 89 °F
Wind: 7 mph from West

Location: Cranbrook

Current Time: Jul 25, 2016 at 12:14:51 AM

Latest Report: Jul 24, 2016 at 11:00 PM


Visibility: 25 mi

Pressure: 29.96 "Hg (26.91 "Hg at 933m altitude)

Humidity: 41%

Dew Point: 48 °F

Location of CranbrookLocation

Past Weather in Cranbrook — Graph

°F

Cranbrook Temperature Yesterday

Maximum temperature yesterday: 84 °F (at 5:00 PM)
Minimum temperature yesterday: 50 °F (at 6:00 AM)
Average temperature yesterday: 69 °F

High & Low Weather Summary for the Past Weeks

 TemperatureHumidityPressure
High86 °F (Jul 21, 7:00 PM)100% (Jul 19, 4:00 AM)30.27 "Hg (Jul 19, 4:00 AM)
Low46 °F (Jul 10, 5:00 AM)11% (Jul 21, 7:00 PM)29.70 "Hg (Jul 10, 6:00 PM)
Average63 °F59%30.00 "Hg
* Reported Jul 9 11:00 PM — Jul 24 11:00 PM, Cranbrook, Weather by CustomWeather, © 2016

Note: Actual official high and low records may vary slightly from our data, if they occured in-between our weather recording intervals... More about our weather records

Advertising

Cranbrook Weather History for the Previous 24 Hours

Scroll right to see more
 ConditionsComfort  
Time TempWeatherWind HumidityBarometerVisibility
11:00 PM
Sun, Jul 24
73 °FPassing clouds.7 mph41%29.96 "Hg25 mi
10:00 PM75 °FPassing clouds.6 mph36%29.95 "Hg25 mi
9:00 PM79 °FScattered clouds.8 mph34%29.94 "Hg25 mi
8:00 PM82 °FScattered clouds.8 mph30%29.93 "Hg25 mi
7:00 PM84 °FScattered clouds.10 mph31%29.94 "Hg25 mi
6:00 PM84 °FScattered clouds.8 mph31%29.95 "Hg25 mi
5:00 PM84 °FScattered clouds.7 mph31%29.96 "Hg25 mi
4:00 PM82 °FPassing clouds.8 mph30%29.98 "Hg25 mi
3:00 PM81 °FPassing clouds.8 mph30%30.01 "Hg45 mi
2:00 PM79 °FPassing clouds.8 mph32%30.03 "Hg45 mi
1:00 PM73 °FPassing clouds.3 mph38%30.05 "Hg45 mi
12:00 PM72 °FPassing clouds.3 mph41%30.08 "Hg45 mi
11:00 AM68 °FPassing clouds.5 mph46%30.09 "Hg45 mi
10:00 AM66 °FPassing clouds.3 mph52%30.11 "Hg45 mi
9:00 AM61 °FPassing clouds.No wind59%30.12 "Hg45 mi
8:00 AM55 °FPassing clouds.5 mph72%30.13 "Hg45 mi
7:00 AM52 °FPassing clouds.5 mph82%30.13 "Hg25 mi
6:00 AM50 °FPassing clouds.6 mph82%30.12 "Hg25 mi
5:00 AM55 °FPassing clouds.3 mph72%30.11 "Hg25 mi
4:00 AM59 °FClear.5 mph63%30.10 "Hg25 mi
3:00 AM59 °FPassing clouds.7 mph63%30.11 "Hg25 mi
2:00 AM61 °FPassing clouds.7 mph59%30.11 "Hg25 mi
1:00 AM61 °FPassing clouds.3 mph59%30.09 "Hg25 mi
12:00 AM63 °FPassing clouds.3 mph56%30.09 "Hg25 mi
Weather by CustomWeather, © 2016

See weather overviewHow to use our weather pages